Overview Statistics Trail Chart Weather Telemetry Raw packets
 

This is the latest recevied weather packets stored in our database for station/object IW1CBG-3. If no packets are shown the sender has not sent any weather packets the latest 10 day(s).

<< 12 13 14 15 16 17 18 >>
Time Temp. Humidity Pressure Rain* Wind** Luminosity Snow
1788483978 15.56° C 95% 1032.4 hPa 0 mm - - -
1788483378 15.56° C 95% 1032.8 hPa 0 mm - - -
1788482777 15.56° C 95% 1032.8 hPa 0 mm - - -
1788482178 15.56° C 95% 1032.5 hPa 0 mm - - -
1788481578 16.11° C 96% 1032.6 hPa 0 mm - - -
1788480977 16.11° C 96% 1032.5 hPa 0 mm - - -
1788480378 16.11° C 95% 1032.6 hPa 0 mm - - -
1788479777 16.11° C 95% 1032.2 hPa 0 mm - - -
1788479176 16.11° C 95% 1032.3 hPa 0 mm - - -
1788478576 16.67° C 95% 1032.4 hPa 0 mm - - -
1788477976 16.67° C 94% 1032.3 hPa 0 mm - - -
1788477377 16.67° C 94% 1032.3 hPa 0 mm - - -
1788476779 16.67° C 94% 1031.8 hPa 0 mm - - -
1788476177 17.78° C 94% 1031.7 hPa 0 mm - - -
1788475577 16.67° C 94% 1032.2 hPa 0 mm - - -
1788474988 17.22° C 94% 1032 hPa 0 mm - - -
1788474376 17.22° C 94% 1031.8 hPa 0 mm - - -
1788473777 17.22° C 94% 1032.2 hPa 0 mm - - -
1788473178 17.22° C 94% 1032.2 hPa 0 mm - - -
1788472578 17.78° C 93% 1032 hPa 0 mm - - -
1788471977 17.78° C 93% 1031.7 hPa 0 mm - - -
1788471378 17.78° C 93% 1031.7 hPa 0 mm - - -
1788470778 18.33° C 93% 1031.4 hPa 0 mm - - -
1788470177 17.78° C 92% 1031.8 hPa 0 mm - - -
1788469578 18.33° C 92% 1031.4 hPa 0 mm - - -

* Rain latest hour (hover to see other rain measurements)
** Current wind speed in m/s (hover to see current wind gust speed)